NOAA 16 DEB, 41248

Orbit data source: Space-Track

NOAA 16 DEB, 41248 is space debris in SSO originally from a launch on Thu, 21 Sep 2000 UTC launched from the Air Force Western Test Range (AFWTR). Debris objects in space refer to the collection of defunct objects orbiting the Earth. Examples of debris include non-operational satellites, rocket bodies, and fragments generated from explosions, collisions, or faulty payload assembly.

Loading next visibility...
Identifier
41248, 2000-055EY
Orbit
SSO
Country
Flag of USUS
Related business
Manufacturer
Unknown
Mission
Spacecraft
Bus & Motor
Unknown
Mass
Unknown
Launch date (UTC)
2000-09-21 (26 years ago)
Launch vehicle
Unknown
Launch site
Air Force Western Test Range (AFWTR)
Object type
Payload
Rocket body
Debris
Shape & HBR
Unknown shape, 0.1 m
Radar Cross Section
Medium (>0.1 m² and <1 m²)

Expand to show TLE details & history
Last TLE update: 1 day ago

TLE from 1 day ago
0 NOAA 16 DEB
1 41248U 00055EY  26206.29291957  .00004922  00000-0  23231-2 0  9999
2 41248  98.8562 217.8335 0066489 324.6124  35.0648 14.19095191539006
Epoch: 2026-07-25T07:01Z
TLE epoch observation values (Epoch: 2026-07-25T07:01:48.250Z)
Latitude
-0.00007°
Longitude
169.37518°
Altitude
792.202 km
Speed
7.478 km/s
True Right ascension
14h 31m 20s
True Declination
0° 00' 00"
Sunlit
Object was in daylight at epoch
Visualization orbit readout
Latitude
Unknown
Longitude
Unknown
Altitude
Unknown
Speed
Unknown
Apparent Right ascension
Unknown
Apparent Declination
Unknown
Sunlit
N/A
Visualization observer readout
Local Sidereal Time
00:47:41
Azimuth
Unknown
Elevation
Unknown
Doppler factor
Unknown
Orbital elements
Apogee altitude
873.478 km
Perigee altitude
777.684 km
Semi-major axis
7,203.718 km
Eccentricity
0.00665
Inclination
98.8562°
RAAN
217.8335°
Arg. of periapsis
324.6124°
True anomaly
35.50551°
Mean anomaly
35.0648°
Eccentric anomaly
35.28485°
Mean motion
3.54983 °/min
Orbital period
101.41 mins
BSTAR
0.0023231
Loading maneuver chart data...
Computing Atmospheric mass density...
Loading historical data...
Loading historical data...
Loading historical data...
Loading historical data...
Loading historical data...
Loading historical data...
Loading historical data...

Documentation

Showing up to 5 results
|